Location: Maccacari
(45.1333°N, 11.1333°E)
Time: 15:05:36
(UTC+00:00)

SR - Pass Details

Date: 22 June 2021
Orbit: 577 x 878 km, 66.7° (Epoch: 24 July)

Event Time Altitude Azimuth Distance (km) Brightness Sun altitude
Rises 00:19:41 0° 324° (NW) 3,284 ? -20.0°
Reaches altitude 10° 00:22:14 10° 321° (NW) 2,304 ? -19.9°
Maximum altitude 00:27:22 57° 244° (WSW) 838 ? -19.6°
Enters shadow 00:28:43 42° 190° (S) 996 ? -19.5°
